Time,TemperatureF,DewpointF,PressureIn,WindDirection,WindDirectionDegrees,WindSpeedMPH,WindSpeedGustMPH,Humidity,HourlyPrecipIn,Conditions,Clouds,dailyrainin,SoftwareType,DateUTC
2013-01-16 00:02:00,22.0,10.0,-100.00,SW,220,8.0,9.0,58,-99.99,,,-99.99,,2013-01-16 06:02:00,
2013-01-16 00:12:00,22.0,10.0,-100.00,SW,220,8.0,9.0,58,-99.99,,,-99.99,,2013-01-16 06:12:00,
2013-01-16 00:32:00,22.0,10.0,-100.00,SW,220,10.0,11.0,58,-99.99,,,-99.99,,2013-01-16 06:32:00,
2013-01-16 00:43:00,22.0,10.0,-100.00,SSW,210,9.0,11.0,59,-99.99,,,-99.99,,2013-01-16 06:43:00,
2013-01-16 01:02:00,21.0,10.0,-100.00,SSW,200,7.0,13.0,60,-99.99,,,-99.99,,2013-01-16 07:02:00,
2013-01-16 02:02:00,21.0,11.0,-100.00,SW,215,9.0,12.0,64,-99.99,,,-99.99,,2013-01-16 08:02:00,
2013-01-16 02:12:00,21.0,11.0,-100.00,SW,215,10.0,13.0,64,-99.99,,,-99.99,,2013-01-16 08:12:00,
2013-01-16 02:32:00,21.0,11.0,-100.00,SW,215,10.0,14.0,64,-99.99,,,-99.99,,2013-01-16 08:32:00,
2013-01-16 02:42:00,21.0,11.0,-100.00,SW,220,11.0,14.0,64,-99.99,,,-99.99,,2013-01-16 08:42:00,
2013-01-16 03:32:00,21.0,11.0,-100.00,SSW,205,9.0,12.0,64,-99.99,,,-99.99,,2013-01-16 09:32:00,
2013-01-16 03:42:00,21.0,11.0,-100.00,SW,225,10.0,12.0,64,-99.99,,,-99.99,,2013-01-16 09:42:00,
2013-01-16 04:02:00,21.0,11.0,-100.00,SW,225,10.0,14.0,65,-99.99,,,-99.99,,2013-01-16 10:02:00,
2013-01-16 04:12:00,21.0,11.0,-100.00,SW,220,8.0,12.0,65,-99.99,,,-99.99,,2013-01-16 10:12:00,
2013-01-16 04:32:00,21.0,11.0,-100.00,SSW,210,9.0,14.0,65,-99.99,,,-99.99,,2013-01-16 10:32:00,
2013-01-16 04:42:00,21.0,11.0,-100.00,SSW,200,10.0,18.0,65,-99.99,,,-99.99,,2013-01-16 10:42:00,
2013-01-16 05:02:00,21.0,11.0,-100.00,SW,225,11.0,14.0,65,-99.99,,,-99.99,,2013-01-16 11:02:00,
2013-01-16 05:12:00,21.0,11.0,-100.00,SW,230,9.0,14.0,65,-99.99,,,-99.99,,2013-01-16 11:12:00,
2013-01-16 05:33:00,21.0,11.0,-100.00,SW,230,10.0,15.0,66,-99.99,,,-99.99,,2013-01-16 11:33:00,
2013-01-16 05:42:00,21.0,12.0,-100.00,SW,230,11.0,14.0,67,-99.99,,,-99.99,,2013-01-16 11:42:00,
2013-01-16 06:03:00,22.0,13.0,-100.00,SSW,210,10.0,15.0,67,-99.99,,,-99.99,,2013-01-16 12:03:00,
2013-01-16 06:13:00,21.0,12.0,-100.00,SSW,205,10.0,15.0,67,-99.99,,,-99.99,,2013-01-16 12:13:00,
2013-01-16 06:33:00,22.0,13.0,-100.00,SW,225,11.0,14.0,68,-99.99,,,-99.99,,2013-01-16 12:33:00,
2013-01-16 06:43:00,22.0,13.0,-100.00,SW,225,11.0,14.0,68,-99.99,,,-99.99,,2013-01-16 12:43:00,
2013-01-16 07:33:00,23.0,14.0,-100.00,WSW,240,9.0,16.0,68,-99.99,,,-99.99,,2013-01-16 13:33:00,
2013-01-16 07:43:00,23.0,14.0,-100.00,SW,230,10.0,16.0,68,-99.99,,,-99.99,,2013-01-16 13:43:00,
2013-01-16 07:53:00,23.0,14.0,-100.00,SW,230,10.0,16.0,68,-99.99,,,-99.99,,2013-01-16 13:53:00,
2013-01-16 08:03:00,23.0,14.0,-100.00,SW,230,10.0,16.0,68,-99.99,,,-99.99,,2013-01-16 14:03:00,
2013-01-16 08:12:00,23.0,14.0,-100.00,SW,220,11.0,16.0,69,-99.99,,,-99.99,,2013-01-16 14:12:00,
2013-01-16 08:33:00,23.0,14.0,-100.00,SW,230,10.0,16.0,69,-99.99,,,-99.99,,2013-01-16 14:33:00,
2013-01-16 08:43:00,22.0,14.0,-100.00,SW,235,11.0,16.0,70,-99.99,,,-99.99,,2013-01-16 14:43:00,
2013-01-16 09:03:00,23.0,15.0,-100.00,SW,225,11.0,16.0,70,-99.99,,,-99.99,,2013-01-16 15:03:00,
2013-01-16 09:12:00,24.0,15.0,-100.00,SW,220,11.0,17.0,70,-99.99,,,-99.99,,2013-01-16 15:12:00,
2013-01-16 09:33:00,26.0,17.0,-100.00,SW,235,14.0,18.0,69,-99.99,,,-99.99,,2013-01-16 15:33:00,
2013-01-16 09:43:00,26.0,18.0,-100.00,SW,225,11.0,17.0,69,-99.99,,,-99.99,,2013-01-16 15:43:00,
2013-01-16 10:12:00,28.0,19.0,-100.00,WSW,240,8.0,15.0,67,-99.99,,,-99.99,,2013-01-16 16:12:00,
2013-01-16 10:33:00,29.0,19.0,-100.00,WSW,245,11.0,16.0,66,-99.99,,,-99.99,,2013-01-16 16:33:00,
2013-01-16 10:42:00,29.0,19.0,-100.00,SW,235,13.0,17.0,65,-99.99,,,-99.99,,2013-01-16 16:42:00,
2013-01-16 11:12:00,31.0,20.0,-100.00,SW,235,11.0,16.0,63,-99.99,,,-99.99,,2013-01-16 17:12:00,
2013-01-16 11:33:00,32.0,21.0,-100.00,SW,220,9.0,13.0,62,-99.99,,,-99.99,,2013-01-16 17:33:00,
2013-01-16 11:43:00,33.0,21.0,-100.00,SSW,210,13.0,16.0,62,-99.99,,,-99.99,,2013-01-16 17:43:00,
2013-01-16 12:03:00,35.0,22.0,-100.00,SSW,210,8.0,15.0,61,-99.99,,,-99.99,,2013-01-16 18:03:00,
2013-01-16 12:13:00,35.0,22.0,-100.00,SW,230,11.0,16.0,59,-99.99,,,-99.99,,2013-01-16 18:13:00,
2013-01-16 12:33:00,37.0,24.0,-100.00,SW,220,10.0,17.0,57,-99.99,,,-99.99,,2013-01-16 18:33:00,
2013-01-16 12:42:00,38.0,24.0,-100.00,SW,215,11.0,15.0,56,-99.99,,,-99.99,,2013-01-16 18:42:00,
2013-01-16 13:03:00,40.0,25.0,-100.00,WSW,240,11.0,17.0,55,-99.99,,,-99.99,,2013-01-16 19:03:00,
2013-01-16 13:12:00,40.0,25.0,-100.00,WSW,245,11.0,18.0,54,-99.99,,,-99.99,,2013-01-16 19:12:00,
2013-01-16 13:33:00,42.0,26.0,-100.00,WSW,245,14.0,19.0,53,-99.99,,,-99.99,,2013-01-16 19:33:00,
2013-01-16 13:43:00,43.0,26.0,-100.00,WSW,250,11.0,18.0,52,-99.99,,,-99.99,,2013-01-16 19:43:00,
2013-01-16 14:03:00,44.0,27.0,-100.00,WSW,240,14.0,17.0,51,-99.99,,,-99.99,,2013-01-16 20:03:00,
2013-01-16 14:12:00,45.0,27.0,-100.00,WSW,240,10.0,17.0,50,-99.99,,,-99.99,,2013-01-16 20:12:00,
2013-01-16 14:33:00,45.0,27.0,-100.00,WSW,240,10.0,15.0,49,-99.99,,,-99.99,,2013-01-16 20:33:00,
2013-01-16 14:42:00,45.0,27.0,-100.00,WSW,250,8.0,13.0,49,-99.99,,,-99.99,,2013-01-16 20:42:00,
2013-01-16 15:03:00,47.0,28.0,-100.00,NW,305,10.0,14.0,48,-99.99,,,-99.99,,2013-01-16 21:03:00,
2013-01-16 15:12:00,47.0,29.0,-100.00,NW,315,6.0,16.0,49,-99.99,,,-99.99,,2013-01-16 21:12:00,
2013-01-16 15:33:00,47.0,29.0,-100.00,West,270,6.0,11.0,49,-99.99,,,-99.99,,2013-01-16 21:33:00,
2013-01-16 15:43:00,47.0,29.0,-100.00,WNW,295,7.0,11.0,49,-99.99,,,-99.99,,2013-01-16 21:43:00,
2013-01-16 16:03:00,48.0,29.0,-100.00,WNW,285,11.0,14.0,49,-99.99,,,-99.99,,2013-01-16 22:03:00,
2013-01-16 16:12:00,48.0,29.0,-100.00,WNW,285,11.0,14.0,49,-99.99,,,-99.99,,2013-01-16 22:12:00,
2013-01-16 16:33:00,48.0,30.0,-100.00,West,275,6.0,10.0,50,-99.99,,,-99.99,,2013-01-16 22:33:00,
2013-01-16 16:43:00,48.0,30.0,-100.00,WNW,300,6.0,13.0,50,-99.99,,,-99.99,,2013-01-16 22:43:00,
2013-01-16 17:03:00,48.0,30.0,-100.00,West,270,5.0,10.0,50,-99.99,,,-99.99,,2013-01-16 23:03:00,
2013-01-16 17:12:00,48.0,29.0,-100.00,West,280,8.0,11.0,49,-99.99,,,-99.99,,2013-01-16 23:12:00,
2013-01-16 17:32:00,47.0,30.0,-100.00,WSW,255,9.0,11.0,50,-99.99,,,-99.99,,2013-01-16 23:32:00,
2013-01-16 17:42:00,47.0,29.0,-100.00,West,270,8.0,10.0,50,-99.99,,,-99.99,,2013-01-16 23:42:00,
2013-01-16 18:02:00,46.0,29.0,-100.00,WSW,250,6.0,6.0,51,-99.99,,,-99.99,,2013-01-17 00:02:00,
2013-01-16 18:12:00,45.0,29.0,-100.00,WSW,245,5.0,7.0,52,-99.99,,,-99.99,,2013-01-17 00:12:00,
2013-01-16 18:32:00,44.0,28.0,-100.00,SW,230,5.0,6.0,54,-99.99,,,-99.99,,2013-01-17 00:32:00,
2013-01-16 18:42:00,44.0,28.0,-100.00,SW,230,6.0,6.0,54,-99.99,,,-99.99,,2013-01-17 00:42:00,
2013-01-16 19:02:00,44.0,29.0,-100.00,SW,225,7.0,8.0,55,-99.99,,,-99.99,,2013-01-17 01:02:00,
2013-01-16 19:12:00,43.0,29.0,-100.00,SW,230,7.0,7.0,56,-99.99,,,-99.99,,2013-01-17 01:12:00,
2013-01-16 19:33:00,43.0,28.0,-100.00,SW,235,8.0,9.0,57,-99.99,,,-99.99,,2013-01-17 01:33:00,
2013-01-16 19:42:00,42.0,29.0,-100.00,WSW,240,10.0,11.0,58,-99.99,,,-99.99,,2013-01-17 01:42:00,
2013-01-16 20:02:00,43.0,29.0,-100.00,SW,235,9.0,11.0,58,-99.99,,,-99.99,,2013-01-17 02:02:00,
2013-01-16 20:12:00,42.0,29.0,-100.00,WSW,240,9.0,10.0,58,-99.99,,,-99.99,,2013-01-17 02:12:00,
2013-01-16 20:32:00,42.0,29.0,-100.00,WSW,240,11.0,11.0,60,-99.99,,,-99.99,,2013-01-17 02:32:00,
2013-01-16 21:03:00,42.0,30.0,-100.00,WSW,255,9.0,11.0,60,-99.99,,,-99.99,,2013-01-17 03:03:00,
2013-01-16 21:12:00,42.0,29.0,-100.00,West,265,9.0,11.0,60,-99.99,,,-99.99,,2013-01-17 03:12:00,
2013-01-16 21:32:00,41.0,29.0,-100.00,West,260,8.0,10.0,62,-99.99,,,-99.99,,2013-01-17 03:32:00,
2013-01-16 21:42:00,42.0,29.0,-100.00,West,275,7.0,10.0,62,-99.99,,,-99.99,,2013-01-17 03:42:00,
2013-01-16 22:02:00,41.0,29.0,-100.00,West,280,6.0,11.0,63,-99.99,,,-99.99,,2013-01-17 04:02:00,
2013-01-16 22:04:00,42.0,30.0,-100.00,NW,305,8.0,11.0,63,-99.99,,,-99.99,,2013-01-17 04:04:00,
2013-01-16 22:12:00,40.0,29.0,-100.00,WNW,285,7.0,10.0,64,-99.99,,,-99.99,,2013-01-17 04:12:00,
2013-01-16 22:32:00,44.0,32.0,-100.00,WNW,295,11.0,14.0,63,-99.99,,,-99.99,,2013-01-17 04:32:00,
2013-01-16 22:42:00,43.0,31.0,-100.00,WNW,300,9.0,14.0,62,-99.99,,,-99.99,,2013-01-17 04:42:00,
2013-01-16 23:12:00,41.0,30.0,-100.00,NW,310,8.0,11.0,63,-99.99,,,-99.99,,2013-01-17 05:12:00,
2013-01-16 23:33:00,40.0,29.0,-100.00,NNW,330,10.0,13.0,66,-99.99,,,-99.99,,2013-01-17 05:33:00,
2013-01-16 23:42:00,39.0,29.0,-100.00,NNW,340,9.0,14.0,67,-99.99,,,-99.99,,2013-01-17 05:42:00,